Location: Boissi�res
(45.2500°N, 2.3667°E)
Time: 20:36:32
(UTC+00:00)

USA 308 - Pass Details

Date: 03 March 2021
Orbit: 568 x 576 km, 54.0° (Epoch: 16 April)

Event Time Altitude Azimuth Distance (km) Brightness Sun altitude
Rises 18:25:43 0° 278° (W) 2,776 8.6 -8.7°
Reaches altitude 10° 18:28:14 10° 290° (WNW) 1,877 6.8 -9.2°
Maximum altitude 18:31:55 27° 350° (N) 1,109 4.5 -9.8°
Drops below altitude 10° 18:35:35 10° 49° (NE) 1,875 5.1 -10.5°
Enters shadow 18:36:00 - 52° (NE) 2,018 5.2 -10.5°
